Orbital Elements at Epoch 2459200.5 (2020-Dec-17.0) TDB
Reference: JPL 16 (heliocentric ecliptic J2000)
Element | Value | Uncertainty (1-sigma) | Units |
e | .1406547973519874 | 5.2568e-08 | |
a | 2.640485130830277 | 1.4497e-08 | au |
q | 2.269088229842409 | 1.457e-07 | au |
i | 8.531187886745988 | 4.8626e-06 | deg |
node | 282.146177389834 | 3.5243e-05 | deg |
peri | 165.065493636946 | 4.1406e-05 | deg |
M | 332.8901805755187 | 1.956e-05 | deg |
tp | 2459318.517970018676 (2021-Apr-14.01797002) | 8.5214e-05 | TDB |
period | 1567.198532069757 4.29 | 1.2906e-05 3.533e-08 | d yr |
n | .2297092503810336 | 1.8917e-09 | deg/d |
Q | 3.011882031818146 | 1.6536e-08 | au |
|
| | Orbit Determination Parameters
Additional Information
|